Location: Pl�tzky
(52.0521°N, 11.8020°E)
Time: 19:25:24
(UTC+00:00)

IRS-1A Rocket - Pass Details

Date: 22 November 2019
Orbit: 852 x 931 km, 99.2° (Epoch: 05 December)

Event Time Altitude Azimuth Distance (km) Brightness Sun altitude
Exits shadow 17:57:45 54° 125° (SE) 1,081 4.4 -24.7°
Maximum altitude 17:58:56 69° 69° (ENE) 966 4.2 -24.9°
Drops below altitude 10° 18:04:43 10° 347° (NNW) 2,615 6.9 -25.8°
Sets 18:07:10 0° 346° (NNW) 3,571 7.6 -26.2°
